N6YV Weather Reports


time (UTC)temp
C
wind
direction
speed
KPH
gust
KPH
rain 1hr
cm
rain 24hr
cm
rain mn
cm
humidity
%
barometer
mb
20260503054543 10 311 4.8 0.0 0.00 0.00 0.13 80 1005.6
20260503053044 10 311 3.2 0.0 0.00 0.00 0.13 82 1005.8
20260503051540 11 311 1.6 0.0 0.00 0.00 0.13 80 1005.9
20260503050039 11 311 1.6 0.0 0.00 0.00 0.13 79 1006.0
20260503044539 11 309 3.2 0.0 0.00 0.00 0.13 72 1005.9
20260503043038 11 307 3.2 0.0 0.00 0.00 0.13 79 1005.7
20260503041537 11 307 0.0 0.0 0.00 0.00 0.13 74 1005.7
20260503040037 11 307 6.4 0.0 0.00 0.00 0.13 73 1005.6
20260503034537 12 74 1.6 0.0 0.00 0.00 0.13 71 1005.6
20260503033043 12 74 0.0 0.0 0.00 0.00 0.13 70 1005.6
20260503031535 12 74 3.2 0.0 0.00 0.00 0.13 69 1005.6
20260503030034 12 59 1.6 0.0 0.00 0.00 0.13 72 1005.4
20260503024537 12 5 3.2 0.0 0.00 0.00 0.13 66 1004.9
20260503023033 12 355 8.0 0.0 0.00 0.00 0.13 66 1004.5
20260503021533 12 360 6.4 0.0 0.00 0.00 0.13 68 1004.2
20260503020034 12 24 8.0 0.0 0.00 0.00 0.13 67 1004.1
20260503014546 13 40 8.0 0.0 0.00 0.00 0.13 66 1004.2
20260503013036 13 336 6.4 0.0 0.00 0.00 0.13 68 1004.0
20260503011534 13 43 4.8 0.0 0.00 0.00 0.13 72 1004.0
20260503010036 13 74 0.0 0.0 0.00 0.00 0.13 71 1004.2
20260503004530 13 76 4.8 0.0 0.00 0.00 0.13 67 1004.0
20260503003026 14 134 12.9 0.0 0.00 0.00 0.13 63 1004.0
20260503001526 18 129 8.0 0.0 0.00 0.00 0.00 36 1003.3
20260503000023 18 130 3.2 0.0 0.00 0.00 0.00 32 1002.9
20260502234525 18 115 6.4 0.0 0.00 0.00 0.00 31 1002.7
20260502233022 19 147 12.9 0.0 0.00 0.00 0.00 30 1002.7
20260502231524 20 143 4.8 0.0 0.00 0.00 0.00 28 1002.6
20260502230021 20 141 8.0 0.0 0.00 0.00 0.00 27 1002.7
20260502224523 20 146 3.2 0.0 0.00 0.00 0.00 27 1002.8
20260502223018 20 244 11.3 0.0 0.00 0.00 0.00 28 1003.0
20260502221518 20 154 4.8 0.0 0.00 0.00 0.00 30 1003.2
20260502220015 20 148 6.4 0.0 0.00 0.00 0.00 30 1003.6
20260502214515 19 205 8.0 0.0 0.00 0.00 0.00 29 1003.6
20260502213013 18 232 20.9 0.0 0.00 0.00 0.00 27 1003.8
20260502211528 19 244 14.5 0.0 0.00 0.00 0.00 26 1004.2
20260502210015 20 167 9.7 0.0 0.00 0.00 0.00 28 1004.6
20260502204511 20 209 8.0 0.0 0.00 0.00 0.00 27 1004.1
20260502203012 20 212 8.0 0.0 0.00 0.00 0.00 27 1004.2
20260502201509 20 211 8.0 0.0 0.00 0.00 0.00 27 1004.3
20260502200008 20 132 9.7 0.0 0.00 0.00 0.00 26 1004.4
20260502194507 20 221 9.7 0.0 0.00 0.00 0.00 25 1004.6
20260502193007 20 204 8.0 0.0 0.00 0.00 0.00 25 1004.6
20260502191506 21 161 11.3 0.0 0.00 0.00 0.00 25 1004.5
20260502190005 21 165 11.3 0.0 0.00 0.00 0.00 24 1004.7
20260502184502 21 144 11.3 0.0 0.00 0.00 0.00 25 1004.8
20260502183107 20 142 6.4 0.0 0.00 0.00 0.00 28 1005.0
20260502181554 18 69 1.6 0.0 0.00 0.00 0.00 34 1005.1
20260502163042 15 15 4.8 0.0 0.00 0.00 0.00 37 1005.5
20260502161539 15 310 3.2 0.0 0.00 0.00 0.00 39 1005.5
20260502151531 12 242 1.6 0.0 0.00 0.00 0.00 43 1005.9
20260502123018 10 254 8.0 0.0 0.00 0.00 0.00 39 1005.1
20260502121515 10 254 6.4 0.0 0.00 0.00 0.00 37 1005.1
20260502114512 11 269 8.0 0.0 0.00 0.00 0.00 33 1005.2
20260502113010 11 258 6.4 0.0 0.00 0.00 0.00 32 1005.3
20260502111510 11 243 3.2 0.0 0.00 0.00 0.00 33 1005.4
20260502110009 11 251 8.0 0.0 0.00 0.00 0.00 35 1005.4
20260502104507 10 288 3.2 0.0 0.00 0.00 0.00 35 1005.4
20260502103003 11 255 3.2 0.0 0.00 0.00 0.00 33 1005.2
20260502101503 11 253 1.6 0.0 0.00 0.00 0.00 30 1005.3
20260502100104 12 252 3.2 0.0 0.00 0.00 0.00 28 1005.2
20260502090107 12 249 8.0 0.0 0.00 0.00 0.00 24 1005.8
20260502071534 13 258 8.0 0.0 0.00 0.00 0.00 23 1006.5